Regional Weather Roundup
Issued by NWS Upton, NY

Current Version | Previous Version | Text Only | Print | Product List | Glossary On
Versions: 1 2 3 4 5 6 7 8 9 10 11 12 13 14 15 16 17 18 19 20 21 22 23 24 25 26 27 28 29 30 31 32 33 34 35 36 37 38 39 40 41 42 43 44 45 46 47 48 49 50
183 ASUS41 KOKX 120604 RWROKX REGIONAL WEATHER ROUNDUP NATIONAL WEATHER SERVICE NEW YORK NY 100 AM EST FRI FEB 12 2016 NOTE: "FAIR" INDICATES FEW OR NO CLOUDS BELOW 12,000 FEET WITH NO SIGNIFICANT WEATHER AND/OR OBSTRUCTIONS TO VISIBILITY. NYZ071-072-176-178-NJZ106-104-120700- NEW YORK CITY METRO AREA CITY SKY/WX TMP DP RH WIND PRES REMARKS CENTRAL PARK CLEAR 18 -3 39 W12G21 30.23R WCI 5 LAGUARDIA APRT CLEAR 20 0 41 W22G30 30.22R WCI 3 KENNEDY INTL PTCLDY 20 -3 36 W16G23 30.24R WCI 6 NEWARK/LIBERTY PTCLDY 18 -2 41 W21G26 30.23R WCI 1 BRNX BOT. GARD N/A 19 -2 38 W15 30.23R WCI 5 TETERBORO CLEAR 18 -3 39 NW13G23 30.22R WCI 5 $$ NYZ177-179-078>081-120700- LONG ISLAND NEW YORK CITY SKY/WX TMP DP RH WIND PRES REMARKS FARMINGDALE CLEAR 18 -2 41 NW10 30.21R WCI 6 ISLIP CLEAR 17 0 47 NW20G25 30.18R WCI 1 SHIRLEY CLEAR 17 0 47 NW16 30.19R WCI 2 RIVERHEAD N/A 19 -9 27 NW8 30.15R WCI 9 WESTHAMPTON PTCLDY 15 0 51 W12 30.19R WCI 2 EAST HAMPTON FAIR 16 -1 47 NW10G22 30.15R WCI 4 MONTAUK POINT N/A 18 3 52 W16G29 30.16R WCI 3 $$ NYZ052-065-067-120700- HUDSON VALLEY CITY SKY/WX TMP DP RH WIND PRES REMARKS WHITE PLAINS PTCLDY 15 -1 49 W17G31 30.16R WCI -1 NEWBURGH CLEAR 12 3 67 NW14G25 30.14 WCI -3 MONTGOMERY CLEAR 14 0 53 W9 30.16R WCI 2 POUGHKEEPSIE CLEAR 16 0 49 W8 30.16R WCI 5 ALBANY CLEAR 7 -5 57 NW8 30.17R WCI -6 $$ NJZ001-105-106-008-010-013-015-019>022-104-120700- NEW JERSEY CITY SKY/WX TMP DP RH WIND PRES REMARKS NEWARK/LIBERTY PTCLDY 18 -2 41 W21G26 30.23R WCI 1 TETERBORO CLEAR 18 -3 39 NW13G23 30.22R WCI 5 CALDWELL CLEAR 17 -4 39 W14G21 30.22R WCI 3 MORRISTOWN PTCLDY 18 -4 38 W8G16 30.22R WCI 7 SOMERVILLE CLEAR 18 -1 43 VRB5 30.23R WCI 11 SUSSEX CLEAR 14 -2 49 VRB6 30.17R WCI 5 ANDOVER N/A 13 -3 49 CALM 30.20R TRENTON CLEAR 18 0 45 NW8 30.24R WCI 8 MILLVILLE CLEAR 20 4 50 W9 30.29R WCI 9 ATLANTIC CITY CLEAR 19 2 47 W8 30.28R WCI 9 WRIGHTSTOWN CLEAR 19 -1 41 W9G20 30.22R WCI 8 TOMS RIVER CLEAR 19 -2 38 W9G16 30.25R WCI 9 BELMAR CLEAR 19 0 42 NW13 30.23R WCI 7 $$ PAZ047>061-062-071-120700- EASTERN PENNSYLVANIA CITY SKY/WX TMP DP RH WIND PRES REMARKS PHILADELPHIA CLEAR 21 -4 33 NW14 30.29R WCI 8 ALLENTOWN MOCLDY 17 1 49 W6 30.24R WCI 9 SCRANTON PTCLDY 11 -2 56 W6 30.17R WCI 1 $$ CTZ002-004>006-009-010-012-RIZ004-006-007-MAZ004-011-015-120700- SOUTHERN NEW ENGLAND IN CT CITY SKY/WX TMP DP RH WIND PRES REMARKS BRADLEY INTL PTCLDY 10 -5 50 NW9 30.13R WCI -3 HARTFORD PTCLDY 13 -2 51 NW14G24 30.17R WCI -2 DANBURY CLEAR 13 -2 51 VRB5 30.15R WCI 5 WTRBRY/OXFORD PTCLDY 10 -9 40 NW9 30.11R WCI -2 BRIDGEPORT CLEAR 16 0 49 W10G20 30.18R WCI 4 MERIDEN CLEAR 13 0 56 NW8 30.16R WCI 2 NEW HAVEN CLEAR 16 0 49 W9 30.17R WCI 4 CHESTER FAIR 12 0 57 NW7 30.13R WCI 2 GROTON CLEAR 13 1 59 NW10G23 30.16R WCI 0 WILLIMANTIC CLEAR 12 -5 46 NW14G23 30.13R WCI -3 IN RI CITY SKY/WX TMP DP RH WIND PRES REMARKS PROVIDENCE CLEAR 12 -7 42 NW16G28 30.10R WCI -5 BLOCK ISLAND CLOUDY 16 1 53 NW15G26 30.10R WCI 1 WESTERLY CLEAR 13 -1 54 W13G22 30.14R WCI -2 IN MA CITY SKY/WX TMP DP RH WIND PRES REMARKS BOSTON CLEAR 10 -6 48 W16G30 30.06R WCI -7 WORCESTER CLEAR 3 -10 54 W14 29.99R WCI -15 WESTFIELD CLEAR 8 -6 52 NW16G26 30.10S WCI -10 PROVINCETOWN CLOUDY 15 5 64 NW25G32 30.02R WCI -4 NANTUCKET CLOUDY 17 2 51 W21G31 30.05R WCI 0 $$ ANZ330-335-338-340-345-350-353-355-120700- COASTAL MARINE OBSERVATIONS STATION/POSITION TIME SKY/WX TEMP WIND PRES VSBY WAVE AIR SEA DIR/SP/G HT/PER (UTC) (F) (DEG/KT/KT) (MB) (MI) (FT/S) NY HARB ENTRANCE 0550 23 42 310/ 23/ 29 1022.7 4/ 5 4S FIRE IS NOT AVBL 20S FIRE ISLAND 0550 23 44 300/ 23/ 29 1022.3 7/ 6 GREAT SOUTH BAY NOT AVBL 23SW MTP 0550 21 45 290/ 25/ 33 1020.5 9/ 7 HUDSON CANYON 0550 27 48 1021.9 11/ 8 KINGS POINT NOT AVBL EXECUTION ROCKS NOT AVBL CENTRAL LI SOUND 0430 20 300/ 21/ 31 N/A 5/ 6 EASTERN LI SOUND NOT AVBL ROBBINS REEF NOT AVBL $$ >>>>>>>>>>>>>>>>>>>>>>>>>>>> KEY <<<<<<<<<<<<<<<<<<<<<<<<<<< > < > SKY/WX - SKY CONDITION/PRESENT WEATHER < > TMP - TEMPERATURE IN FAHRENHEIT < > DP - DEWPOINT IN FAHRENHEIT < > RH - RELATIVE HUMIDITY IN PERCENT < > WIND - DIRECTION AND SPEED IN MPH < > PRES - MEAN SEA LEVEL PRESSURE IN INCHES OF HG < > WCI - WIND CHILL INDEX < > VSB - VISIBILITY IN MILES < > HX - HEAT INDEX < > TC - TEMPERATURE IN CELSIUS < > VRB - VARIABLE WIND DIRECTION < > < >>>>>>>>>>>>>>>>>>>>>>>>>>>> KEY <<<<<<<<<<<<<<<<<<<<<<<<<<<

USA.gov is the U.S. government's official web portal to all federal, state and local government web resources and services.